NOAA 16 DEB, 42387

Orbit data source: Space-Track

NOAA 16 DEB, 42387 is space debris in SSO originally from a launch on Thu, 21 Sep 2000 UTC launched from the Air Force Western Test Range (AFWTR). Debris objects in space refer to the collection of defunct objects orbiting the Earth. Examples of debris include non-operational satellites, rocket bodies, and fragments generated from explosions, collisions, or faulty payload assembly.

Loading next visibility...
NOAA 16 DEB details
Identifier
42387, 2000-055SF
Orbit
SSO
Last TLE update10 hours ago
Origin
Flag of USNOAA (US)
ManufacturerUnknown
MissionSpacecraft
Bus & MotorUnknown
MassUnknown
Launch date (UTC)
2000-09-21 (24 years ago)
Launch vehicleUnknown
Launch site
Air Force Western Test Range (AFWTR)
Object type
Payload
Rocket body
Debris
Shape & HBRUnknown
Radar Cross SectionSmall (<0.1 m²)

Expand to show TLE details & history

TLE from 10 hours ago
0 NOAA 16 DEB
1 42387U 00055SF  24340.01424174  .00016135  00000-0  59220-2 0  9996
2 42387  98.8216  83.5413 0014852  99.8975 260.3886 14.32739976455234
Epoch: 2024-12-05T00:20Z
Definitive object data (Epoch: 2024-12-05T00:20:30.486Z)
Latitude0.00004°
Longitude4.11314°
Altitude787.306 km
Speed7.459 km/s
True Right ascension05h 34m 09s
True Declination0° 00' 00"
Sunlit
Object was in full shadow at TLE epoch
Visualization TLE readout
Latitude81.14607°
Longitude-93.14032°
Altitude785.408 km
Speed7.474 km/s
Apparent Right ascension21h 12m 15s
Apparent Declination27° 03' 31"
Sunlit
Object is in daylight
Visualization observer readout
Local Sidereal Time08:47:44
Azimuth354.081° N
Elevation-22.783°
Doppler factor1
Orbital elements
Apogee altitude790.365 km
Perigee altitude769.103 km
Semi-major axis7,157.871 km
Eccentricity0.0014852
Inclination98.8216°
RAAN83.5413°
Arg. of periapsis99.8975°
True anomaly260.22085°
Mean anomaly260.3886°
Eccentric anomaly260.30472°
Mean motion3.58399 °/min
BSTAR0.005922
Orbital period100.45 mins
Loading maneuver chart data...
Loading historical data...
Loading historical data...
Loading historical data...
Loading historical data...
Loading historical data...
Loading historical data...
Loading historical data...

NOAA 16 DEB Visibility forecast

Observer location: undefined°, undefined

Span
Click to sort rows by Start time (UTC) header in descending order
Start Az.
Max El. time (UTC)
Max El. Az.
Max El.
End time (UTC)
End Az.
8 mins2024-12-05 19:22:17.207Z37.261° NE2024-12-05 19:26:17.207Z105.792° ESE30.25°2024-12-05 19:30:17.207Z162.435° S
6 mins2024-12-05 21:02:17.207Z338.084° N2024-12-05 21:05:17.207Z290.41° WNW23.837°2024-12-05 21:08:17.207Z246.329° WSW
7 mins2024-12-06 06:39:17.207Z137.703° SSE2024-12-06 06:42:17.207Z71.587° E38.122°2024-12-06 06:46:17.207Z359.861° N
4 mins2024-12-06 08:20:17.207Z244.789° WSW2024-12-06 08:22:17.207Z273.438° WNW16.865°2024-12-06 08:24:17.207Z299.634° NW
|